Total_Precipitation_Accumulation
1.57 1.55 1.42 1.32 1.23 1.17 1.14 1.10 0.98 0.87 0.78 0.71 0.65 0.62 0.58 0.54 0.52 0.53 0.54 0.56 0.75 1.12 1.44 1.59 1.68 1.67 1.65 1.67 1.69 1.65 1.56 1.37 1.24 1.09 0.98 0.89 0.83 0.80 0.82 0.83 0.83 0.80 0.81
1.76 1.69 1.61 1.54 1.41 1.32 1.27 1.23 1.11 1.12 1.09 0.98 0.84 0.74 0.66 0.62 0.57 0.52 0.52 0.54 0.64 0.82 1.16 1.50 1.66 1.77 1.91 1.96 1.93 1.83 1.73 1.62 1.51 1.37 1.18 1.06 0.96 0.92 0.98 0.95 0.88 0.85 0.85
1.91 1.83 1.81 1.70 1.50 1.44 1.46 1.45 1.37 1.32 1.26 1.15 1.01 0.93 0.85 0.78 0.71 0.65 0.60 0.58 0.62 0.72 0.94 1.26 1.50 1.67 1.93 2.19 2.29 2.20 1.97 1.78 1.62 1.49 1.39 1.28 1.18 1.06 1.08 1.12 1.10 1.04 0.97
1.99 1.96 1.91 1.89 1.74 1.67 1.69 1.64 1.55 1.48 1.36 1.25 1.14 1.08 1.00 0.95 0.88 0.87 0.83 0.74 0.71 0.67 0.83 1.12 1.31 1.55 1.83 2.11 2.40 2.48 2.28 2.00 1.74 1.59 1.48 1.41 1.38 1.36 1.30 1.27 1.26 1.19 1.12
2.16 2.09 1.93 1.89 1.91 1.81 1.76 1.78 1.71 1.61 1.51 1.43 1.36 1.26 1.17 1.10 1.02 0.99 1.01 0.95 0.90 0.83 0.81 0.96 1.13 1.26 1.54 1.87 2.14 2.44 2.44 2.23 1.97 1.75 1.62 1.56 1.54 1.57 1.52 1.43 1.37 1.30 1.25
2.16 2.12 1.99 1.98 2.03 1.95 1.78 1.71 1.66 1.64 1.57 1.58 1.58 1.47 1.37 1.28 1.21 1.14 1.08 1.07 1.05 0.99 0.92 0.88 0.91 1.01 1.23 1.54 1.84 2.19 2.43 2.41 2.25 2.02 1.82 1.73 1.69 1.68 1.68 1.66 1.62 1.51 1.46
2.21 2.22 2.14 2.14 2.15 2.06 1.92 1.88 1.90 1.83 1.71 1.68 1.69 1.53 1.44 1.40 1.29 1.21 1.15 1.05 1.00 1.01 1.02 0.99 0.91 0.87 0.96 1.23 1.51 1.84 2.27 2.56 2.56 2.41 2.18 2.00 1.89 1.82 1.83 1.91 1.90 1.82 1.73
2.43 2.36 2.35 2.41 2.38 2.26 2.14 2.04 2.04 2.02 1.89 1.84 1.85 1.81 1.65 1.59 1.41 1.18 1.13 1.05 1.00 1.00 1.00 1.06 1.04 0.94 0.86 0.92 1.10 1.40 1.80 2.29 2.71 2.89 2.81 2.58 2.39 2.20 2.14 2.15 2.18 2.13 2.04
2.65 2.52 2.45 2.54 2.58 2.49 2.36 2.21 2.11 2.08 2.11 2.05 1.95 2.05 1.83 1.54 1.39 1.28 1.15 1.07 1.04 1.05 1.04 1.06 1.09 1.05 0.96 0.88 0.89 1.05 1.34 1.78 2.32 2.83 3.12 3.10 2.91 2.71 2.65 2.62 2.59 2.54 2.44
2.75 2.72 2.65 2.60 2.65 2.68 2.57 2.44 2.30 2.24 2.26 2.22 2.11 1.90 1.77 1.54 1.45 1.35 1.22 1.18 1.13 1.08 1.05 1.06 1.09 1.11 1.11 1.07 1.04 1.06 1.14 1.37 1.84 2.36 2.79 3.01 3.07 2.99 2.94 2.94 2.99 3.03 2.96
2.78 2.75 2.68 2.57 2.51 2.57 2.66 2.66 2.46 2.34 2.25 2.12 2.02 1.87 1.77 1.55 1.36 1.36 1.22 1.13 1.15 1.10 1.05 1.03 1.08 1.13 1.15 1.14 1.10 1.16 1.26 1.32 1.61 2.09 2.62 2.93 3.15 3.33 3.34 3.26 3.16 3.11 3.09
2.79 2.75 2.73 2.61 2.44 2.36 2.40 2.54 2.58 2.44 2.31 2.16 2.01 1.90 1.81 1.70 1.51 1.47 1.41 1.18 1.15 1.12 1.10 1.08 1.04 1.07 1.11 1.15 1.18 1.39 1.37 1.46 1.68 2.05 2.55 3.03 3.24 3.37 3.53 3.55 3.48 3.34 3.18
2.62 2.59 2.61 2.63 2.54 2.41 2.42 2.47 2.56 2.49 2.37 2.24 2.10 1.96 1.88 1.75 1.59 1.60 1.66 1.52 1.31 1.15 1.12 1.12 1.12 1.13 1.16 1.23 1.34 1.59 1.56 1.64 1.79 2.07 2.49 2.89 3.08 3.13 3.21 3.41 3.57 3.59 3.55
2.58 2.52 2.44 2.42 2.45 2.40 2.37 2.39 2.43 2.46 2.44 2.32 2.16 1.99 1.87 1.74 1.70 1.75 1.82 1.92 1.84 1.50 1.28 1.19 1.17 1.25 1.34 1.43 1.65 1.80 1.61 1.81 1.92 2.13 2.42 2.72 2.75 2.73 2.73 2.88 3.16 3.41 3.46
2.40 2.46 2.44 2.28 2.24 2.24 2.23 2.24 2.22 2.17 2.23 2.24 2.13 2.01 1.88 1.75 1.75 1.79 1.87 2.06 2.32 2.19 1.73 1.37 1.35 1.40 1.46 1.60 1.90 1.76 1.62 1.91 1.96 2.00 2.11 2.20 2.17 2.21 2.33 2.40 2.51 2.69 2.82
2.00 2.11 2.22 2.23 2.15 2.16 2.15 2.12 2.05 1.95 1.94 1.92 1.92 1.93 1.87 1.75 1.73 1.75 1.85 1.96 2.14 2.27 2.05 1.50 1.33 1.39 1.53 1.64 1.92 1.78 1.69 1.91 1.84 1.88 1.89 1.90 1.86 1.88 1.97 2.08 2.10 2.12 2.20
1.69 1.83 1.93 2.07 2.09 2.08 2.08 2.03 1.95 1.90 1.83 1.74 1.73 1.78 1.76 1.67 1.70 1.69 1.73 1.84 1.98 2.15 2.19 1.74 1.46 1.46 1.60 1.64 1.66 1.59 1.54 1.54 1.51 1.70 1.64 1.64 1.65 1.64 1.65 1.77 1.89 1.89 1.90
1.49 1.58 1.61 1.67 1.80 1.86 1.93 1.95 1.88 1.80 1.75 1.66 1.59 1.65 1.68 1.66 1.69 1.69 1.75 1.80 1.84 1.91 2.01 1.87 1.58 1.47 1.46 1.43 1.40 1.39 1.36 1.30 1.24 1.48 1.46 1.42 1.43 1.41 1.38 1.41 1.57 1.69 1.68
1.28 1.37 1.41 1.43 1.47 1.55 1.64 1.72 1.77 1.75 1.68 1.61 1.60 1.60 1.62 1.69 1.74 1.72 1.75 1.80 1.77 1.71 1.70 1.69 1.50 1.32 1.30 1.30 1.36 1.31 1.29 1.28 1.15 1.29 1.38 1.36 1.35 1.28 1.24 1.24 1.31 1.43 1.49
0.98 1.02 1.11 1.18 1.26 1.33 1.41 1.47 1.54 1.62 1.66 1.65 1.65 1.65 1.64 1.71 1.80 1.83 1.84 1.81 1.75 1.71 1.63 1.60 1.51 1.37 1.29 1.25 1.34 1.37 1.34 1.31 1.24 1.12 1.27 1.30 1.32 1.30 1.22 1.15 1.11 1.12 1.22
0.78 0.79 0.89 0.98 1.07 1.15 1.25 1.33 1.39 1.46 1.50 1.55 1.60 1.66 1.68 1.79 1.85 1.82 1.72 1.62 1.57 1.59 1.54 1.52 1.45 1.34 1.26 1.26 1.28 1.21 1.18 1.20 1.25 1.17 1.16 1.18 1.17 1.13 1.11 1.13 1.12 1.12 1.15
0.78 0.78 0.81 0.86 0.95 1.03 1.26 1.35 1.33 1.33 1.39 1.44 1.47 1.49 1.54 1.62 1.55 1.56 1.53 1.46 1.50 1.60 1.59 1.47 1.31 1.16 1.00 0.97 1.00 1.10 1.19 1.32 1.38 1.16 1.11 1.15 1.12 1.17 1.07 1.02 1.14 1.13 1.12
0.80 0.83 0.82 0.85 0.88 1.00 1.23 1.28 1.41 1.36 1.34 1.34 1.33 1.33 1.30 1.25 1.27 1.14 1.20 1.23 1.23 1.30 1.31 1.28 1.24 1.01 0.87 0.84 1.02 1.20 1.23 1.22 1.12 0.99 1.09 1.28 1.18 1.16 1.02 1.00 1.16 1.13 1.12
0.96 0.98 0.96 0.97 1.00 1.11 1.27 1.27 1.33 1.26 1.19 1.13 1.08 1.07 1.08 1.04 1.04 1.10 1.12 1.12 0.99 0.92 0.91 0.88 0.87 0.82 0.83 0.91 1.12 1.32 1.37 1.39 1.22 1.08 1.13 1.37 1.23 1.15 1.04 0.98 1.08 1.09 1.11
1.20 1.19 1.19 1.15 1.14 1.16 1.19 1.11 1.11 1.06 1.01 0.93 0.86 0.86 0.91 0.92 1.02 1.20 1.19 1.13 1.00 0.90 0.89 0.95 0.97 0.97 1.06 1.14 1.26 1.47 1.66 1.82 1.69 1.31 1.14 1.21 1.14 1.10 1.12 1.08 1.09 1.16 1.12
1.15 1.11 1.11 1.07 0.99 0.93 0.93 0.90 0.89 0.87 0.86 0.77 0.74 0.75 0.88 0.94 1.11 1.28 1.26 1.19 1.12 0.94 0.89 0.95 0.95 0.95 0.93 0.99 1.13 1.16 1.33 1.70 1.71 1.43 1.04 1.09 1.12 1.25 1.51 1.22 1.11 1.15 1.15